QPF
0.00 0.00 0.01 0.02 0.01 0.00 0.00 0.00 0.01 0.01 0.01 0.02 0.01 0.00 0.00 0.01 0.02 0.01 0.01 0.00 0.00 0.00 0.00 0.00 0.00 0.00 0.00 0.00 0.00 0.00 0.00 0.00 0.00
0.00 0.00 0.00 0.00 0.00 0.00 0.00 0.00 0.01 0.01 0.02 0.01 0.00 0.00 0.00 0.01 0.01 0.01 0.01 0.01 0.00 0.00 0.00 0.00 0.00 0.00 0.00 0.00 0.00 0.00 0.00 0.01 0.00
0.00 0.00 0.00 0.00 0.00 0.00 0.00 0.00 0.01 0.01 0.01 0.00 0.00 0.00 0.00 0.00 0.00 0.00 0.00 0.00 0.00 0.00 0.00 0.00 0.00 0.00 0.00 0.02 0.03 0.02 0.01 0.02 0.02
0.00 0.00 0.00 0.00 0.00 0.00 0.00 0.00 0.00 0.01 0.01 0.00 0.00 0.00 0.00 0.00 0.00 0.00 0.00 0.00 0.00 0.00 0.00 0.00 0.00 0.00 0.00 0.01 0.00 0.00 0.00 0.01 0.01
0.00 0.00 0.00 0.00 0.00 0.00 0.00 0.00 0.00 0.00 0.00 0.00 0.00 0.00 0.00 0.00 0.00 0.00 0.00 0.00 0.00 0.00 0.00 0.00 0.00 0.00 0.00 0.00 0.00 0.00 0.00 0.00 0.00
0.00 0.00 0.00 0.00 0.00 0.00 0.00 0.00 0.00 0.00 0.00 0.00 0.00 0.00 0.00 0.00 0.00 0.00 0.00 0.00 0.00 0.01 0.00 0.00 0.00 0.00 0.00 0.00 0.00 0.00 0.00 0.00 0.00
0.00 0.00 0.00 0.00 0.00 0.00 0.00 0.00 0.00 0.00 0.00 0.00 0.00 0.00 0.00 0.00 0.00 0.00 0.00 0.00 0.00 0.00 0.00 0.00 0.00 0.00 0.00 0.00 0.00 0.00 0.00 0.00 0.00
0.00 0.00 0.00 0.00 0.00 0.00 0.00 0.00 0.00 0.00 0.00 0.00 0.00 0.00 0.00 0.00 0.00 0.00 0.01 0.00 0.01 0.01 0.01 0.00 0.00 0.00 0.00 0.00 0.00 0.00 0.00 0.00 0.00
0.00 0.00 0.00 0.00 0.00 0.00 0.00 0.00 0.00 0.00 0.00 0.00 0.00 0.00 0.00 0.00 0.00 0.00 0.01 0.00 0.01 0.00 0.01 0.01 0.01 0.00 0.00 0.00 0.00 0.01 0.00 0.00 0.00
0.00 0.00 0.00 0.00 0.00 0.00 0.00 0.00 0.00 0.00 0.00 0.00 0.00 0.00 0.00 0.00 0.00 0.00 0.01 0.01 0.02 0.00 0.00 0.00 0.00 0.01 0.01 0.00 0.00 0.00 0.01 0.00 0.00
0.00 0.00 0.00 0.00 0.00 0.00 0.00 0.00 0.00 0.00 0.00 0.00 0.00 0.00 0.00 0.00 0.00 0.00 0.00 0.01 0.00 0.01 0.01 0.01 0.01 0.01 0.01 0.00 0.00 0.00 0.00 0.00 0.00
0.00 0.00 0.00 0.00 0.00 0.00 0.00 0.00 0.00 0.00 0.00 0.00 0.00 0.00 0.00 0.00 0.00 0.00 0.00 0.00 0.00 0.01 0.00 0.01 0.00 0.00 0.00 0.00 0.00 0.00 0.00 0.00 0.00
0.00 0.00 0.00 0.00 0.00 0.00 0.00 0.00 0.00 0.00 0.00 0.00 0.00 0.00 0.00 0.00 0.00 0.00 0.00 0.00 0.00 0.01 0.00 0.01 0.01 0.00 0.00 0.00 0.00 0.00 0.00 0.00 0.00
0.00 0.00 0.00 0.00 0.00 0.00 0.00 0.00 0.00 0.00 0.00 0.00 0.00 0.00 0.00 0.00 0.00 0.00 0.00 0.00 0.00 0.00 0.00 0.00 0.00 0.00 0.01 0.00 0.00 0.00 0.00 0.00 0.00
0.00 0.00 0.00 0.00 0.00 0.00 0.00 0.00 0.00 0.00 0.00 0.00 0.00 0.00 0.00 0.00 0.00 0.00 0.00 0.00 0.00 0.00 0.00 0.00 0.00 0.00 0.00 0.00 0.00 0.00 0.00 0.00 0.00
0.00 0.00 0.00 0.00 0.00 0.00 0.00 0.00 0.00 0.00 0.00 0.00 0.00 0.00 0.00 0.00 0.00 0.00 0.00 0.00 0.00 0.00 0.00 0.00 0.00 0.00 0.00 0.00 0.00 0.00 0.00 0.00 0.00
0.00 0.00 0.00 0.00 0.00 0.00 0.00 0.00 0.00 0.00 0.00 0.00 0.00 0.00 0.00 0.00 0.00 0.00 0.00 0.00 0.00 0.00 0.00 0.00 0.00 0.00 0.00 0.00 0.00 0.00 0.00 0.00 0.00
0.00 0.00 0.00 0.00 0.00 0.00 0.00 0.00 0.00 0.00 0.00 0.00 0.00 0.00 0.00 0.00 0.00 0.00 0.00 0.00 0.00 0.00 0.00 0.00 0.00 0.00 0.00 0.00 0.00 0.00 0.00 0.00 0.00
0.00 0.00 0.00 0.00 0.00 0.00 0.00 0.00 0.00 0.00 0.00 0.00 0.00 0.00 0.00 0.00 0.00 0.00 0.00 0.00 0.00 0.00 0.00 0.00 0.00 0.00 0.00 0.00 0.00 0.00 0.00 0.00 0.00
0.00 0.00 0.00 0.00 0.00 0.00 0.00 0.00 0.00 0.00 0.00 0.00 0.00 0.00 0.00 0.00 0.00 0.00 0.00 0.00 0.00 0.00 0.00 0.00 0.00 0.00 0.00 0.00 0.00 0.00 0.00 0.00 0.00
MSLP
1019.38 1019.49 1019.61 1019.97 1020.17 1020.41 1020.50 1020.52 1020.47 1020.61 1020.83 1021.00 1021.28 1021.45 1021.54 1021.65 1021.74 1021.84 1021.85 1021.91 1021.96 1022.05 1022.01 1022.09 1022.14 1021.97 1022.04 1021.79 1021.59 1021.30 1021.23 1021.29 1021.24
1019.68 1019.79 1020.02 1020.24 1020.45 1020.74 1020.87 1020.88 1020.96 1021.14 1021.32 1021.60 1021.82 1022.02 1022.02 1022.09 1022.28 1022.35 1022.35 1022.41 1022.54 1022.44 1022.54 1022.43 1022.41 1022.33 1022.27 1022.20 1021.98 1021.85 1021.67 1021.68 1021.66
1020.02 1020.05 1020.31 1020.52 1020.75 1021.05 1021.24 1021.28 1021.43 1021.61 1021.80 1022.09 1022.35 1022.45 1022.62 1022.71 1022.76 1022.89 1022.93 1022.83 1023.15 1023.19 1022.98 1023.02 1022.89 1022.86 1022.73 1022.47 1022.31 1022.17 1022.14 1022.01 1021.99
1020.31 1020.48 1020.68 1020.88 1021.16 1021.39 1021.53 1021.77 1021.90 1022.06 1022.25 1022.54 1022.76 1022.98 1023.16 1023.28 1023.35 1023.29 1023.37 1023.52 1023.62 1023.50 1023.53 1023.58 1023.44 1023.37 1023.23 1023.09 1022.94 1022.74 1022.69 1022.59 1022.42
1020.60 1020.85 1020.96 1021.20 1021.42 1021.73 1021.98 1022.10 1022.21 1022.38 1022.68 1022.97 1023.23 1023.48 1023.73 1023.93 1023.95 1023.99 1023.86 1023.94 1024.09 1024.16 1024.08 1024.03 1024.02 1024.00 1023.81 1023.62 1023.51 1023.38 1023.22 1023.09 1023.01
1020.98 1021.22 1021.25 1021.46 1021.79 1021.94 1022.19 1022.50 1022.67 1022.91 1023.15 1023.37 1023.64 1023.92 1024.31 1024.41 1024.48 1024.43 1024.21 1024.28 1024.52 1024.65 1024.77 1024.71 1024.47 1024.53 1024.45 1024.27 1024.00 1023.94 1023.80 1023.61 1023.56
1021.28 1021.53 1021.59 1021.83 1022.07 1022.25 1022.43 1022.84 1023.21 1023.51 1023.84 1024.04 1024.14 1024.33 1024.60 1024.77 1024.86 1024.66 1024.53 1024.78 1024.90 1025.07 1025.18 1025.25 1025.18 1025.11 1024.97 1024.99 1024.75 1024.53 1024.37 1024.19 1024.09
1021.67 1021.91 1022.14 1022.32 1022.36 1022.62 1022.89 1023.23 1023.64 1023.95 1024.19 1024.50 1024.69 1024.81 1024.86 1024.94 1024.97 1024.96 1025.09 1025.16 1025.29 1025.40 1025.54 1025.63 1025.67 1025.53 1025.51 1025.41 1025.38 1025.09 1025.02 1024.75 1024.60
1022.13 1022.39 1022.64 1022.78 1022.93 1023.17 1023.37 1023.64 1024.09 1024.29 1024.46 1024.71 1025.04 1025.19 1025.24 1025.35 1025.44 1025.37 1025.33 1025.50 1025.61 1025.77 1025.87 1026.00 1026.00 1026.04 1026.02 1025.96 1025.87 1025.62 1025.52 1025.50 1025.24
1022.30 1022.65 1022.91 1023.17 1023.33 1023.47 1023.67 1023.80 1024.36 1024.53 1024.72 1024.94 1025.17 1025.55 1025.75 1025.69 1025.89 1025.76 1025.74 1025.81 1025.99 1026.07 1026.17 1026.25 1026.34 1026.39 1026.47 1026.50 1026.37 1026.24 1026.13 1025.98 1025.81
1022.25 1022.74 1023.12 1023.40 1023.53 1023.77 1023.93 1024.08 1024.32 1024.83 1024.91 1025.10 1025.53 1025.81 1026.01 1026.09 1026.33 1026.30 1026.21 1026.22 1026.25 1026.42 1026.46 1026.56 1026.64 1026.77 1026.82 1026.94 1026.93 1026.77 1026.61 1026.57 1026.53
1022.09 1022.64 1023.13 1023.46 1023.74 1023.99 1024.26 1024.40 1024.83 1024.98 1025.13 1025.49 1025.78 1026.04 1026.17 1026.26 1026.71 1026.68 1026.52 1026.59 1026.67 1026.75 1026.69 1026.83 1026.92 1027.04 1027.19 1027.31 1027.35 1027.27 1027.13 1027.12 1027.06
1021.97 1022.49 1023.01 1023.40 1023.86 1024.23 1024.59 1024.77 1025.01 1025.41 1025.52 1025.90 1025.92 1026.04 1026.27 1026.54 1026.96 1026.89 1026.89 1026.92 1027.05 1027.07 1027.00 1027.16 1027.26 1027.26 1027.39 1027.50 1027.60 1027.65 1027.67 1027.56 1027.52
1021.70 1022.12 1022.65 1023.22 1023.82 1024.33 1024.64 1025.07 1025.20 1025.70 1025.96 1026.09 1026.16 1026.17 1026.39 1026.56 1026.85 1027.03 1027.17 1027.22 1027.36 1027.53 1027.45 1027.44 1027.52 1027.54 1027.60 1027.68 1027.82 1027.87 1027.99 1027.89 1027.89
1021.44 1022.01 1022.45 1022.97 1023.53 1024.11 1024.62 1025.01 1025.46 1025.78 1026.04 1026.42 1026.68 1026.64 1026.43 1026.61 1026.87 1027.04 1027.39 1027.41 1027.67 1027.86 1027.98 1027.97 1027.91 1027.77 1027.74 1027.85 1028.02 1028.10 1028.17 1028.18 1028.16
1021.10 1021.69 1022.29 1022.74 1023.20 1023.59 1024.10 1024.85 1025.34 1025.94 1026.27 1026.71 1027.22 1027.09 1027.01 1026.89 1026.99 1027.07 1027.27 1027.61 1027.82 1028.06 1028.30 1028.34 1028.31 1028.27 1028.07 1028.04 1028.15 1028.22 1028.21 1028.31 1028.38
1020.89 1021.38 1021.93 1022.38 1023.06 1023.46 1023.89 1024.38 1025.29 1025.80 1026.15 1026.47 1027.03 1027.66 1027.64 1027.39 1027.26 1027.23 1027.25 1027.42 1027.79 1028.21 1028.34 1028.49 1028.53 1028.55 1028.54 1028.42 1028.34 1028.36 1028.29 1028.41 1028.46
1020.47 1020.93 1021.46 1022.08 1022.40 1023.02 1023.45 1023.92 1024.44 1025.21 1025.89 1026.06 1026.41 1027.55 1027.53 1027.64 1027.60 1027.53 1027.60 1027.55 1027.54 1027.86 1028.25 1028.43 1028.57 1028.67 1028.73 1028.68 1028.61 1028.58 1028.58 1028.48 1028.36
1020.29 1020.63 1021.05 1021.60 1022.05 1022.47 1022.96 1023.37 1023.89 1024.44 1025.26 1025.93 1026.06 1026.15 1026.54 1027.40 1027.96 1027.85 1027.70 1027.73 1027.82 1027.63 1027.84 1028.09 1028.33 1028.48 1028.66 1028.72 1028.76 1028.72 1028.69 1028.65 1028.48
1020.03 1020.37 1020.78 1021.29 1021.57 1021.79 1022.35 1023.17 1023.74 1024.05 1024.60 1024.98 1025.84 1026.29 1026.52 1026.81 1027.30 1027.79 1027.76 1027.81 1027.55 1027.50 1027.62 1027.64 1027.86 1028.14 1028.40 1028.59 1028.69 1028.69 1028.65 1028.64 1028.56
Thickness
5721 5723 5724 5723 5723 5723 5723 5724 5725 5725 5723 5723 5721 5720 5720 5719 5716 5715 5714 5714 5713 5712 5711 5710 5709 5709 5708 5709 5710 5710 5709 5706 5704
5718 5719 5721 5720 5721 5720 5720 5722 5722 5721 5721 5719 5718 5717 5718 5716 5714 5713 5712 5711 5709 5709 5708 5708 5708 5707 5707 5707 5707 5707 5706 5704 5702
5714 5716 5717 5717 5718 5717 5717 5719 5719 5718 5718 5716 5715 5714 5713 5712 5712 5710 5709 5708 5705 5704 5705 5705 5704 5704 5704 5705 5705 5705 5704 5703 5700
5710 5711 5711 5712 5713 5713 5714 5715 5714 5714 5714 5713 5712 5711 5710 5709 5708 5708 5707 5704 5703 5703 5701 5700 5701 5701 5701 5701 5701 5701 5701 5700 5698
5707 5707 5708 5708 5708 5709 5708 5711 5711 5711 5710 5709 5709 5707 5705 5704 5704 5704 5703 5702 5700 5699 5698 5698 5697 5696 5697 5698 5697 5697 5696 5696 5695
5702 5703 5704 5704 5704 5705 5706 5706 5706 5706 5705 5705 5704 5703 5701 5700 5700 5700 5700 5699 5697 5696 5694 5694 5694 5693 5692 5693 5694 5693 5693 5693 5692
5698 5698 5700 5700 5700 5700 5701 5701 5701 5700 5699 5698 5700 5699 5697 5696 5696 5696 5697 5695 5694 5692 5691 5690 5689 5689 5689 5688 5689 5689 5689 5689 5689
5693 5694 5694 5695 5696 5696 5696 5697 5697 5696 5694 5693 5693 5694 5693 5693 5693 5692 5691 5690 5690 5689 5688 5686 5685 5685 5684 5684 5684 5685 5684 5685 5685
5688 5689 5689 5689 5690 5690 5691 5691 5691 5691 5690 5689 5689 5689 5689 5688 5688 5687 5687 5686 5686 5684 5684 5683 5682 5681 5680 5680 5680 5680 5680 5679 5681
5683 5684 5684 5684 5684 5686 5686 5687 5685 5686 5686 5684 5684 5683 5683 5683 5682 5682 5682 5682 5681 5680 5679 5679 5678 5678 5677 5676 5675 5675 5675 5675 5676
5680 5679 5679 5679 5679 5679 5680 5681 5681 5680 5681 5679 5677 5676 5677 5677 5676 5677 5676 5676 5675 5675 5675 5674 5674 5673 5672 5671 5670 5670 5670 5669 5669
5677 5676 5675 5675 5674 5674 5674 5674 5673 5674 5674 5673 5672 5671 5670 5671 5669 5669 5670 5670 5669 5669 5669 5669 5668 5668 5667 5666 5665 5665 5665 5664 5664
5674 5673 5672 5671 5669 5668 5667 5667 5667 5666 5667 5666 5667 5666 5665 5665 5663 5663 5664 5664 5663 5663 5664 5663 5663 5663 5662 5661 5661 5660 5659 5659 5659
5672 5672 5670 5669 5666 5664 5663 5662 5662 5659 5659 5659 5661 5661 5661 5660 5658 5657 5657 5657 5657 5656 5657 5657 5657 5657 5657 5657 5656 5656 5654 5654 5654
5670 5669 5668 5666 5663 5661 5659 5658 5656 5655 5654 5652 5650 5652 5655 5655 5653 5653 5651 5652 5651 5650 5650 5651 5652 5652 5652 5651 5651 5650 5650 5649 5649
5669 5667 5665 5663 5661 5660 5657 5654 5652 5649 5648 5645 5641 5643 5644 5647 5647 5648 5648 5645 5645 5645 5644 5644 5645 5646 5646 5646 5646 5645 5645 5645 5644
5665 5664 5662 5661 5657 5656 5655 5653 5647 5644 5643 5642 5638 5633 5635 5637 5639 5641 5641 5642 5640 5639 5638 5638 5638 5639 5639 5640 5640 5640 5640 5639 5639
5662 5661 5660 5658 5657 5654 5653 5651 5649 5643 5639 5639 5637 5626 5629 5627 5630 5632 5633 5634 5636 5635 5633 5633 5633 5633 5633 5633 5633 5633 5633 5633 5634
5659 5659 5657 5655 5653 5652 5650 5648 5647 5644 5638 5633 5634 5634 5632 5625 5623 5623 5624 5626 5626 5630 5631 5630 5628 5628 5627 5627 5627 5627 5627 5627 5627
5654 5654 5653 5652 5651 5650 5648 5643 5639 5640 5636 5634 5628 5627 5625 5625 5622 5618 5619 5619 5621 5623 5623 5625 5624 5622 5622 5621 5621 5621 5621 5621 5621